Location: Czu?�w
(50.1404°N, 18.9919°E)
Time: 03:25:42
(UTC+00:00)

ARGOS - Pass Details

Date: 27 October 2020
Orbit: 820 x 835 km, 98.4° (Epoch: 27 November)

Event Time Altitude Azimuth Distance (km) Brightness Sun altitude
Exits shadow 17:13:08 17° 134° (SE) 1,967 4.7 -17.3°
Maximum altitude 17:17:00 47° 67° (ENE) 1,094 3.4 -17.9°
Drops below altitude 10° 17:22:12 10° 355° (N) 2,459 5.7 -18.7°
Sets 17:24:38 0° 350° (N) 3,398 6.5 -19.1°
